SND68 YSOL-YBUD

Flight info

Callsign SND68
Flight time 4h 9m
Altitude 33000
Route RAFFY T85 AS T11 PULOL/N0442F350 T11 DOVUB H206 IDLEG
Aircraft A319/M-SDE3FGHIRWY/LB1

Departure

Time 2026-04-17 07:33
Airport Solomon Airport (YSOL)

Arrival

Time 2026-04-17 11:43
Airport Bundaberg Airport (YBUD)
Time Latitude Longitude Altitude Speed Heading
2026-04-17 07:08 -22.25437 117.84949 2022 ft 0 kts 314°
2026-04-17 07:24 -22.25435 117.84933 2021 ft 2 kts 258°
2026-04-17 07:24 -22.25445 117.84927 2021 ft 3 kts 168°
2026-04-17 07:24 -22.25481 117.84924 2019 ft 6 kts 189°
2026-04-17 07:25 -22.25541 117.84919 2016 ft 10 kts 180°
2026-04-17 07:25 -22.25625 117.84919 2012 ft 12 kts 179°
2026-04-17 07:25 -22.25677 117.84974 2011 ft 11 kts 89°
2026-04-17 07:25 -22.25676 117.85024 2012 ft 0 kts 88°
2026-04-17 07:26 -22.25436 117.84940 2021 ft 0 kts 88°
2026-04-17 07:28 -22.25436 117.84941 2021 ft 1 kts 90°
2026-04-17 07:28 -22.25452 117.84946 2021 ft 4 kts 186°
2026-04-17 07:28 -22.25490 117.84924 2018 ft 8 kts 202°
2026-04-17 07:28 -22.25562 117.84919 2015 ft 11 kts 180°
2026-04-17 07:29 -22.25654 117.84923 2011 ft 14 kts 161°
2026-04-17 07:29 -22.25676 117.85015 2012 ft 12 kts 89°
2026-04-17 07:29 -22.25675 117.85110 2013 ft 14 kts 90°
2026-04-17 07:29 -22.25675 117.85222 2014 ft 14 kts 89°
2026-04-17 07:30 -22.25674 117.85323 2014 ft 12 kts 89°
2026-04-17 07:30 -22.25674 117.85416 2015 ft 11 kts 90°
2026-04-17 07:30 -22.25673 117.85516 2015 ft 18 kts 89°
2026-04-17 07:30 -22.25672 117.85668 2015 ft 20 kts 90°
2026-04-17 07:31 -22.25672 117.85811 2015 ft 18 kts 89°
2026-04-17 07:31 -22.25672 117.85938 2015 ft 12 kts 97°
2026-04-17 07:31 -22.25670 117.85982 2015 ft 3 kts 286°
2026-04-17 07:31 -22.25671 117.85970 2015 ft 0 kts 269°
2026-04-17 07:32 -22.25671 117.85932 2015 ft 28 kts 270°
2026-04-17 07:32 -22.25674 117.85438 2015 ft 101 kts 269°
2026-04-17 07:32 -22.25680 117.84441 2016 ft 160 kts 269°
2026-04-17 07:33 -22.25698 117.83162 2370 ft 179 kts 269°
2026-04-17 07:33 -22.25693 117.81794 3016 ft 187 kts 274°
2026-04-17 07:33 -22.25655 117.80415 3807 ft 186 kts 272°
2026-04-17 07:33 -22.25515 117.79121 4520 ft 171 kts 290°
2026-04-17 07:34 -22.24822 117.78088 4806 ft 180 kts 327°
2026-04-17 07:34 -22.23560 117.77790 5033 ft 197 kts
2026-04-17 07:34 -22.22220 117.78339 5287 ft 215 kts 30°
2026-04-17 07:34 -22.21017 117.79412 5509 ft 236 kts 48°
2026-04-17 07:35 -22.20125 117.80984 5714 ft 260 kts 69°
2026-04-17 07:35 -22.20001 117.82968 6021 ft 280 kts 104°
2026-04-17 07:35 -22.20959 117.84815 6564 ft 288 kts 135°
2026-04-17 07:35 -22.22316 117.86366 7290 ft 289 kts 121°
2026-04-17 07:36 -22.22920 117.88413 7978 ft 289 kts 89°
2026-04-17 07:36 -22.22518 117.90468 8698 ft 286 kts 62°
2026-04-17 07:36 -22.21345 117.92188 9404 ft 286 kts 45°
2026-04-17 07:36 -22.19950 117.93713 9984 ft 291 kts 45°
2026-04-17 07:37 -22.18570 117.95373 10524 ft 300 kts 49°
2026-04-17 07:37 -22.17249 117.97192 10815 ft 317 kts 53°
2026-04-17 07:37 -22.15961 117.99169 11105 ft 333 kts 55°
2026-04-17 07:37 -22.14670 118.01291 11597 ft 340 kts 57°
2026-04-17 07:38 -22.13400 118.03464 12202 ft 344 kts 57°
2026-04-17 07:38 -22.12246 118.05487 12707 ft 348 kts 57°
2026-04-17 07:38 -22.10984 118.07719 13246 ft 352 kts 58°
2026-04-17 07:39 -22.09697 118.10017 13775 ft 357 kts 58°
2026-04-17 07:39 -22.08413 118.12315 14305 ft 361 kts 58°
2026-04-17 07:39 -22.07117 118.14640 14850 ft 364 kts 58°
2026-04-17 07:39 -22.05822 118.16967 15378 ft 367 kts 58°
2026-04-17 07:40 -22.04496 118.19350 15879 ft 371 kts 58°
2026-04-17 07:40 -22.03168 118.21737 16351 ft 375 kts 58°
2026-04-17 07:40 -22.01825 118.24150 16803 ft 379 kts 58°
2026-04-17 07:40 -22.00470 118.26583 17255 ft 383 kts 57°
2026-04-17 07:41 -21.99083 118.29076 17691 ft 387 kts 57°
2026-04-17 07:41 -21.97704 118.31548 18142 ft 390 kts 57°
2026-04-17 07:41 -21.96293 118.34080 18570 ft 394 kts 57°
2026-04-17 07:41 -21.94892 118.36591 19000 ft 398 kts 57°
2026-04-17 07:42 -21.93460 118.39158 19449 ft 400 kts 57°
2026-04-17 07:42 -21.92014 118.41748 19862 ft 404 kts 57°
2026-04-17 07:42 -21.90561 118.44349 20267 ft 407 kts 57°
2026-04-17 07:42 -21.89094 118.46974 20661 ft 411 kts 57°
2026-04-17 07:43 -21.87622 118.49606 21047 ft 414 kts 57°
2026-04-17 07:43 -21.86124 118.52284 21436 ft 417 kts 57°
2026-04-17 07:43 -21.84641 118.54934 21813 ft 419 kts 57°
2026-04-17 07:43 -21.83125 118.57642 22168 ft 423 kts 57°
2026-04-17 07:44 -21.81613 118.60341 22512 ft 426 kts 57°
2026-04-17 07:44 -21.80069 118.63097 22868 ft 429 kts 57°
2026-04-17 07:44 -21.78534 118.65836 23241 ft 431 kts 56°
2026-04-17 07:44 -21.76989 118.68590 23547 ft 434 kts 56°
2026-04-17 07:45 -21.75424 118.71379 23849 ft 437 kts 56°
2026-04-17 07:45 -21.73848 118.74185 24164 ft 440 kts 56°
2026-04-17 07:45 -21.72261 118.77010 24470 ft 442 kts 56°
2026-04-17 07:45 -21.70662 118.79855 24762 ft 445 kts 55°
2026-04-17 07:46 -21.69075 118.82676 25041 ft 448 kts 55°
2026-04-17 07:46 -21.67448 118.85568 25312 ft 451 kts 55°
2026-04-17 07:46 -21.65834 118.88435 25615 ft 452 kts 55°
2026-04-17 07:46 -21.64194 118.91347 25925 ft 454 kts 55°
2026-04-17 07:47 -21.62571 118.94226 26204 ft 456 kts 54°
2026-04-17 07:47 -21.60918 118.97157 26474 ft 458 kts 54°
2026-04-17 07:47 -21.59271 119.00074 26733 ft 461 kts 54°
2026-04-17 07:47 -21.57605 119.03024 27000 ft 463 kts 54°
2026-04-17 07:48 -21.55930 119.05991 27265 ft 465 kts 54°
2026-04-17 07:48 -21.54250 119.08964 27522 ft 467 kts 54°
2026-04-17 07:48 -21.52572 119.11932 27768 ft 470 kts 54°
2026-04-17 07:48 -21.50866 119.14947 28032 ft 471 kts 54°
2026-04-17 07:49 -21.49161 119.17958 28277 ft 474 kts 54°
2026-04-17 07:49 -21.47459 119.20963 28530 ft 475 kts 54°
2026-04-17 07:49 -21.45731 119.24014 28780 ft 477 kts 54°
2026-04-17 07:49 -21.44012 119.27045 29056 ft 479 kts 54°
2026-04-17 07:50 -21.42291 119.30077 29364 ft 479 kts 54°
2026-04-17 07:50 -21.40573 119.33106 29731 ft 477 kts 54°
2026-04-17 07:50 -21.38840 119.36159 30115 ft 476 kts 54°
2026-04-17 07:50 -21.37137 119.39160 30471 ft 475 kts 54°
2026-04-17 07:51 -21.35423 119.42179 30833 ft 473 kts 54°
2026-04-17 07:51 -21.33707 119.45197 31164 ft 473 kts 54°
2026-04-17 07:51 -21.32009 119.48182 31478 ft 472 kts 54°
2026-04-17 07:51 -21.30297 119.51189 31748 ft 473 kts 54°
2026-04-17 07:52 -21.28779 119.54311 31979 ft 479 kts 63°
2026-04-17 07:52 -21.27646 119.57710 32219 ft 485 kts 72°
2026-04-17 07:52 -21.26976 119.61225 32485 ft 488 kts 81°
2026-04-17 07:52 -21.26771 119.64895 32741 ft 491 kts 90°
2026-04-17 07:53 -21.27049 119.68497 32945 ft 493 kts 98°
2026-04-17 07:53 -21.27665 119.72105 32956 ft 493 kts 101°
2026-04-17 07:53 -21.29066 119.79313 32955 ft 494 kts 101°
2026-04-17 07:54 -21.30428 119.86520 32954 ft 494 kts 101°
2026-04-17 07:54 -21.31743 119.93703 32954 ft 494 kts 100°
2026-04-17 07:55 -21.33045 120.00908 32953 ft 493 kts 100°
2026-04-17 07:55 -21.34338 120.08107 32957 ft 493 kts 100°
2026-04-17 07:56 -21.35632 120.15321 32963 ft 493 kts 100°
2026-04-17 07:56 -21.36920 120.22532 32964 ft 494 kts 100°
2026-04-17 07:57 -21.38207 120.29745 32965 ft 493 kts 100°
2026-04-17 07:57 -21.39493 120.36973 32966 ft 493 kts 100°
2026-04-17 07:58 -21.40769 120.44170 32967 ft 493 kts 100°
2026-04-17 07:58 -21.42035 120.51331 32968 ft 492 kts 100°
2026-04-17 07:59 -21.43310 120.58554 32968 ft 493 kts 100°
2026-04-17 07:59 -21.44580 120.65765 32965 ft 493 kts 99°
2026-04-17 08:00 -21.45847 120.72978 32963 ft 493 kts 99°
2026-04-17 08:00 -21.47105 120.80162 32963 ft 492 kts 99°
2026-04-17 08:01 -21.48363 120.87369 32962 ft 492 kts 99°
2026-04-17 08:01 -21.49617 120.94575 32960 ft 492 kts 99°
2026-04-17 08:02 -21.50870 121.01790 32958 ft 493 kts 99°
2026-04-17 08:02 -21.52120 121.09000 32959 ft 492 kts 99°
2026-04-17 08:03 -21.53359 121.16166 32962 ft 492 kts 99°
2026-04-17 08:03 -21.54601 121.23380 32964 ft 492 kts 99°
2026-04-17 08:04 -21.55841 121.30591 32968 ft 492 kts 99°
2026-04-17 08:04 -21.57081 121.37820 32971 ft 492 kts 99°
2026-04-17 08:05 -21.58313 121.45035 32971 ft 492 kts 99°
2026-04-17 08:05 -21.59542 121.52235 32974 ft 492 kts 99°
2026-04-17 08:06 -21.60768 121.59453 32976 ft 492 kts 99°
2026-04-17 08:06 -21.61997 121.66695 32979 ft 493 kts 99°
2026-04-17 08:07 -21.63211 121.73878 32977 ft 492 kts 99°
2026-04-17 08:07 -21.64430 121.81100 32980 ft 492 kts 99°
2026-04-17 08:08 -21.65647 121.88339 32980 ft 492 kts 99°
2026-04-17 08:08 -21.66851 121.95518 32984 ft 493 kts 99°
2026-04-17 08:09 -21.68066 122.02776 32987 ft 493 kts 99°
2026-04-17 08:09 -21.69271 122.10007 32985 ft 493 kts 99°
2026-04-17 08:10 -21.70471 122.17226 32985 ft 492 kts 99°
2026-04-17 08:10 -21.71798 122.24451 32988 ft 492 kts 102°
2026-04-17 08:11 -21.73323 122.31578 32987 ft 493 kts 102°
2026-04-17 08:11 -21.74863 122.38753 32986 ft 493 kts 102°
2026-04-17 08:12 -21.76388 122.45924 32984 ft 493 kts 102°
2026-04-17 08:12 -21.77903 122.53072 32974 ft 493 kts 102°
2026-04-17 08:13 -21.79420 122.60255 32973 ft 493 kts 102°
2026-04-17 08:14 -21.81695 122.71059 32967 ft 493 kts 102°
2026-04-17 08:14 -21.83203 122.78233 32969 ft 493 kts 102°
2026-04-17 08:15 -21.84709 122.85413 32969 ft 493 kts 101°
2026-04-17 08:15 -21.86202 122.92558 32969 ft 493 kts 102°
2026-04-17 08:16 -21.87698 122.99739 32972 ft 493 kts 102°
2026-04-17 08:16 -21.89199 123.06958 32974 ft 494 kts 102°
2026-04-17 08:17 -21.90691 123.14133 32976 ft 494 kts 102°
2026-04-17 08:17 -21.92185 123.21335 32977 ft 494 kts 101°
2026-04-17 08:18 -21.93670 123.28516 32978 ft 493 kts 101°
2026-04-17 08:18 -21.95159 123.35747 32976 ft 493 kts 101°
2026-04-17 08:19 -21.96636 123.42932 32977 ft 494 kts 102°
2026-04-17 08:19 -21.98115 123.50138 32978 ft 494 kts 102°
2026-04-17 08:20 -21.99586 123.57311 32979 ft 493 kts 101°
2026-04-17 08:20 -22.01063 123.64547 32977 ft 493 kts 101°
2026-04-17 08:21 -22.02530 123.71745 32977 ft 493 kts 101°
2026-04-17 08:21 -22.03986 123.78908 32981 ft 493 kts 101°
2026-04-17 08:22 -22.05448 123.86120 32978 ft 493 kts 101°
2026-04-17 08:22 -22.06904 123.93311 32980 ft 493 kts 101°
2026-04-17 08:23 -22.08361 124.00525 32979 ft 493 kts 101°
2026-04-17 08:23 -22.09819 124.07770 32978 ft 494 kts 101°
2026-04-17 08:24 -22.11270 124.14986 32978 ft 493 kts 101°
2026-04-17 08:24 -22.12710 124.22172 32981 ft 493 kts 101°
2026-04-17 08:25 -22.14155 124.29393 32984 ft 493 kts 101°
2026-04-17 08:25 -22.15596 124.36625 32992 ft 493 kts 101°
2026-04-17 08:26 -22.17026 124.43810 32998 ft 494 kts 101°
2026-04-17 08:26 -22.18457 124.51019 33003 ft 493 kts 101°
2026-04-17 08:27 -22.19893 124.58265 33002 ft 494 kts 101°
2026-04-17 08:27 -22.21315 124.65465 33002 ft 494 kts 100°
2026-04-17 08:28 -22.22746 124.72723 33000 ft 493 kts 100°
2026-04-17 08:28 -22.24164 124.79936 33003 ft 494 kts 100°
2026-04-17 08:29 -22.25579 124.87152 33000 ft 493 kts 101°
2026-04-17 08:29 -22.26989 124.94360 33000 ft 494 kts 100°
2026-04-17 08:30 -22.28409 125.01640 33002 ft 494 kts 100°
2026-04-17 08:30 -22.29816 125.08858 33004 ft 494 kts 100°
2026-04-17 08:31 -22.31218 125.16082 33004 ft 494 kts 100°
2026-04-17 08:31 -22.32615 125.23297 33006 ft 494 kts 100°
2026-04-17 08:32 -22.34021 125.30576 33009 ft 493 kts 100°
2026-04-17 08:32 -22.35414 125.37804 33007 ft 494 kts 100°
2026-04-17 08:33 -22.36805 125.45033 33008 ft 494 kts 100°
2026-04-17 08:33 -22.38193 125.52271 33010 ft 493 kts 100°
2026-04-17 08:34 -22.39575 125.59504 33011 ft 493 kts 100°
2026-04-17 08:34 -22.40960 125.66775 33116 ft 500 kts 100°
2026-04-17 08:34 -22.41664 125.70471 33304 ft 503 kts 100°
2026-04-17 08:35 -22.42367 125.74168 33627 ft 502 kts 100°
2026-04-17 08:35 -22.43070 125.77859 33987 ft 501 kts 100°
2026-04-17 08:35 -22.43762 125.81495 34332 ft 500 kts 99°
2026-04-17 08:35 -22.44459 125.85162 34695 ft 498 kts 99°
2026-04-17 08:36 -22.45153 125.88831 34993 ft 497 kts 99°
2026-04-17 08:36 -22.46528 125.96121 35011 ft 497 kts 99°
2026-04-17 08:37 -22.47900 126.03415 35012 ft 496 kts 99°
2026-04-17 08:37 -22.49268 126.10704 35012 ft 496 kts 99°
2026-04-17 08:38 -22.50632 126.17982 35013 ft 496 kts 99°
2026-04-17 08:38 -22.51998 126.25295 35014 ft 496 kts 99°
2026-04-17 08:39 -22.53355 126.32574 35014 ft 496 kts 99°
2026-04-17 08:39 -22.54708 126.39857 35016 ft 496 kts 99°
2026-04-17 08:40 -22.56058 126.47139 35018 ft 496 kts 99°
2026-04-17 08:40 -22.57407 126.54439 35018 ft 496 kts 99°
2026-04-17 08:41 -22.58755 126.61742 35019 ft 496 kts 99°
2026-04-17 08:41 -22.60103 126.69076 35022 ft 496 kts 99°
2026-04-17 08:42 -22.61440 126.76363 35033 ft 496 kts 99°
2026-04-17 08:42 -22.62771 126.83641 35039 ft 496 kts 99°
2026-04-17 08:43 -22.64103 126.90942 35045 ft 496 kts 99°
2026-04-17 08:43 -22.65431 126.98242 35046 ft 495 kts 99°
2026-04-17 08:44 -22.66766 127.05587 35048 ft 496 kts 99°
2026-04-17 08:44 -22.68085 127.12887 35051 ft 496 kts 99°
2026-04-17 08:45 -22.69403 127.20184 35051 ft 496 kts 99°
2026-04-17 08:45 -22.70717 127.27495 35055 ft 496 kts 99°
2026-04-17 08:46 -22.72026 127.34777 35057 ft 496 kts 99°
2026-04-17 08:46 -22.73342 127.42125 35057 ft 496 kts 99°
2026-04-17 08:47 -22.74644 127.49417 35060 ft 496 kts 99°
2026-04-17 08:47 -22.75943 127.56721 35063 ft 496 kts 99°
2026-04-17 08:48 -22.77241 127.64031 35063 ft 497 kts 99°
2026-04-17 08:48 -22.78544 127.71386 35057 ft 496 kts 99°
2026-04-17 08:49 -22.79838 127.78717 35051 ft 497 kts 99°
2026-04-17 08:49 -22.81127 127.86027 35048 ft 497 kts 99°
2026-04-17 08:50 -22.82419 127.93396 35046 ft 497 kts 99°
2026-04-17 08:50 -22.83706 128.00748 35043 ft 497 kts 99°
2026-04-17 08:51 -22.84981 128.08043 35044 ft 497 kts 99°
2026-04-17 08:51 -22.86262 128.15392 35042 ft 496 kts 99°
2026-04-17 08:52 -22.87532 128.22717 35044 ft 495 kts 99°
2026-04-17 08:52 -22.88801 128.30041 35038 ft 496 kts 99°
2026-04-17 08:53 -22.90070 128.37392 35039 ft 496 kts 99°
2026-04-17 08:53 -22.91332 128.44724 35039 ft 496 kts 99°
2026-04-17 08:54 -22.92588 128.52039 35035 ft 496 kts 99°
2026-04-17 08:54 -22.93842 128.59369 35039 ft 496 kts 99°
2026-04-17 08:55 -22.95091 128.66695 35039 ft 497 kts 98°
2026-04-17 08:55 -22.96348 128.74072 35043 ft 497 kts 98°
2026-04-17 08:56 -22.97589 128.81401 35045 ft 497 kts 99°
2026-04-17 08:56 -22.98844 128.88773 35050 ft 498 kts 99°
2026-04-17 08:57 -23.00148 128.96100 35054 ft 497 kts 99°
2026-04-17 08:57 -23.01460 129.03445 35060 ft 498 kts 99°
2026-04-17 08:58 -23.02770 129.10844 35065 ft 498 kts 99°
2026-04-17 08:58 -23.04070 129.18205 35073 ft 498 kts 99°
2026-04-17 08:59 -23.05354 129.25514 35080 ft 497 kts 99°
2026-04-17 08:59 -23.06652 129.32913 35080 ft 497 kts 99°
2026-04-17 09:00 -23.07938 129.40271 35076 ft 498 kts 99°
2026-04-17 09:00 -23.09215 129.47604 35076 ft 497 kts 99°
2026-04-17 09:01 -23.10494 129.54965 35070 ft 497 kts 99°
2026-04-17 09:01 -23.11772 129.62324 35067 ft 496 kts 99°
2026-04-17 09:02 -23.13049 129.69708 35063 ft 497 kts 98°
2026-04-17 09:02 -23.14312 129.77048 35069 ft 497 kts 98°
2026-04-17 09:03 -23.15572 129.84387 35079 ft 498 kts 99°
2026-04-17 09:03 -23.16838 129.91780 35086 ft 498 kts 99°
2026-04-17 09:04 -23.18103 129.99179 35091 ft 499 kts 99°
2026-04-17 09:04 -23.19362 130.06564 35097 ft 497 kts 99°
2026-04-17 09:05 -23.20609 130.13911 35103 ft 498 kts 99°
2026-04-17 09:05 -23.21861 130.21307 35111 ft 498 kts 99°
2026-04-17 09:06 -23.23104 130.28665 35117 ft 497 kts 99°
2026-04-17 09:06 -23.24348 130.36060 35120 ft 497 kts 99°
2026-04-17 09:07 -23.25585 130.43424 35122 ft 498 kts 99°
2026-04-17 09:07 -23.26820 130.50812 35116 ft 498 kts 99°
2026-04-17 09:08 -23.28051 130.58177 35105 ft 497 kts 99°
2026-04-17 09:08 -23.29282 130.65576 35097 ft 497 kts 98°
2026-04-17 09:09 -23.30503 130.72937 35092 ft 497 kts 98°
2026-04-17 09:09 -23.31723 130.80315 35092 ft 497 kts 98°
2026-04-17 09:10 -23.33541 130.91362 35095 ft 497 kts 98°
2026-04-17 09:10 -23.34752 130.98737 35101 ft 497 kts 98°
2026-04-17 09:11 -23.35962 131.06139 35108 ft 498 kts 98°
2026-04-17 09:11 -23.37170 131.13542 35112 ft 497 kts 98°
2026-04-17 09:12 -23.38370 131.20914 35115 ft 497 kts 98°
2026-04-17 09:12 -23.39565 131.28293 35117 ft 497 kts 98°
2026-04-17 09:13 -23.40762 131.35702 35119 ft 497 kts 98°
2026-04-17 09:13 -23.41950 131.43076 35120 ft 497 kts 98°
2026-04-17 09:14 -23.43131 131.50427 35122 ft 497 kts 99°
2026-04-17 09:14 -23.44321 131.57851 35130 ft 496 kts 99°
2026-04-17 09:15 -23.45492 131.65193 35145 ft 496 kts 98°
2026-04-17 09:15 -23.46672 131.72607 35161 ft 497 kts 98°
2026-04-17 09:16 -23.47844 131.79996 35172 ft 497 kts 98°
2026-04-17 09:16 -23.49014 131.87402 35169 ft 497 kts 98°
2026-04-17 09:17 -23.50184 131.94815 35159 ft 497 kts 98°
2026-04-17 09:17 -23.51340 132.02173 35146 ft 497 kts 98°
2026-04-17 09:18 -23.52502 132.09595 35145 ft 497 kts 98°
2026-04-17 09:18 -23.53653 132.16978 35146 ft 497 kts 98°
2026-04-17 09:19 -23.54806 132.24382 35147 ft 497 kts 98°
2026-04-17 09:19 -23.55962 132.31821 35148 ft 497 kts 98°
2026-04-17 09:20 -23.57100 132.39192 35149 ft 497 kts 98°
2026-04-17 09:20 -23.58244 132.46613 35150 ft 497 kts 98°
2026-04-17 09:21 -23.59388 132.54053 35151 ft 497 kts 98°
2026-04-17 09:21 -23.60517 132.61440 35151 ft 497 kts 98°
2026-04-17 09:22 -23.61650 132.68857 35150 ft 497 kts 98°
2026-04-17 09:22 -23.62772 132.76234 35151 ft 497 kts 98°
2026-04-17 09:23 -23.63899 132.83661 35151 ft 496 kts 97°
2026-04-17 09:23 -23.65014 132.91049 35151 ft 496 kts 98°
2026-04-17 09:24 -23.66129 132.98451 35151 ft 496 kts 98°
2026-04-17 09:24 -23.67240 133.05853 35152 ft 497 kts 98°
2026-04-17 09:25 -23.68350 133.13277 35157 ft 496 kts 98°
2026-04-17 09:25 -23.69454 133.20673 35158 ft 496 kts 98°
2026-04-17 09:26 -23.70557 133.28098 35156 ft 496 kts 98°
2026-04-17 09:26 -23.71656 133.35519 35151 ft 497 kts 98°
2026-04-17 09:27 -23.72750 133.42928 35146 ft 497 kts 98°
2026-04-17 09:27 -23.73841 133.50356 35141 ft 497 kts 98°
2026-04-17 09:28 -23.74936 133.57814 35136 ft 497 kts 98°
2026-04-17 09:28 -23.76016 133.65216 35133 ft 497 kts 97°
2026-04-17 09:29 -23.77095 133.72629 35126 ft 496 kts 97°
2026-04-17 09:29 -23.78175 133.80086 35120 ft 497 kts 97°
2026-04-17 09:30 -23.79294 133.87491 35114 ft 497 kts 100°
2026-04-17 09:30 -23.80925 133.94795 35113 ft 497 kts 104°
2026-04-17 09:31 -23.82687 134.02051 35112 ft 497 kts 104°
2026-04-17 09:31 -23.84446 134.09348 35116 ft 497 kts 104°
2026-04-17 09:32 -23.86187 134.16634 35116 ft 497 kts 104°
2026-04-17 09:32 -23.87912 134.23895 35115 ft 497 kts 104°
2026-04-17 09:33 -23.89642 134.31195 35114 ft 497 kts 104°
2026-04-17 09:33 -23.91376 134.38522 35113 ft 498 kts 104°
2026-04-17 09:34 -23.93094 134.45807 35113 ft 498 kts 104°
2026-04-17 09:34 -23.94813 134.53101 35113 ft 498 kts 104°
2026-04-17 09:35 -23.96533 134.60422 35107 ft 499 kts 104°
2026-04-17 09:35 -23.98255 134.67773 35099 ft 499 kts 103°
2026-04-17 09:36 -23.99960 134.75067 35093 ft 499 kts 104°
2026-04-17 09:36 -24.01676 134.82416 35088 ft 499 kts 103°
2026-04-17 09:37 -24.03379 134.89729 35087 ft 499 kts 103°
2026-04-17 09:37 -24.05088 134.97092 35086 ft 499 kts 103°
2026-04-17 09:38 -24.06785 135.04414 35084 ft 500 kts 104°
2026-04-17 09:38 -24.08484 135.11768 35083 ft 500 kts 103°
2026-04-17 09:39 -24.10181 135.19121 35081 ft 499 kts 103°
2026-04-17 09:39 -24.11871 135.26471 35079 ft 500 kts 104°
2026-04-17 09:40 -24.13561 135.33830 35078 ft 500 kts 104°
2026-04-17 09:40 -24.15246 135.41194 35078 ft 500 kts 104°
2026-04-17 09:41 -24.16928 135.48552 35079 ft 500 kts 103°
2026-04-17 09:41 -24.18603 135.55898 35077 ft 500 kts 103°
2026-04-17 09:42 -24.20277 135.63268 35075 ft 500 kts 104°
2026-04-17 09:42 -24.21959 135.70670 35070 ft 500 kts 103°
2026-04-17 09:43 -24.23626 135.78049 35067 ft 501 kts 103°
2026-04-17 09:43 -24.25293 135.85428 35066 ft 501 kts 103°
2026-04-17 09:44 -24.26956 135.92816 35067 ft 501 kts 103°
2026-04-17 09:44 -24.28607 136.00163 35065 ft 501 kts 103°
2026-04-17 09:45 -24.30263 136.07550 35063 ft 501 kts 103°
2026-04-17 09:45 -24.31917 136.14951 35062 ft 501 kts 103°
2026-04-17 09:46 -24.33571 136.22357 35060 ft 501 kts 103°
2026-04-17 09:46 -24.35214 136.29747 35056 ft 501 kts 103°
2026-04-17 09:47 -24.36859 136.37161 35055 ft 501 kts 103°
2026-04-17 09:47 -24.38498 136.44556 35052 ft 501 kts 103°
2026-04-17 09:48 -24.40135 136.51979 35051 ft 502 kts 103°
2026-04-17 09:48 -24.41768 136.59390 35050 ft 501 kts 103°
2026-04-17 09:49 -24.43390 136.66777 35045 ft 502 kts 103°
2026-04-17 09:49 -24.45027 136.74246 35047 ft 502 kts 103°
2026-04-17 09:50 -24.46647 136.81657 35044 ft 502 kts 103°
2026-04-17 09:50 -24.48260 136.89069 35046 ft 501 kts 103°
2026-04-17 09:51 -24.49876 136.96518 35051 ft 502 kts 103°
2026-04-17 09:51 -24.51485 137.03952 35049 ft 502 kts 103°
2026-04-17 09:52 -24.53091 137.11395 35047 ft 503 kts 103°
2026-04-17 09:52 -24.54692 137.18835 35047 ft 502 kts 103°
2026-04-17 09:53 -24.56282 137.26239 35046 ft 502 kts 103°
2026-04-17 09:53 -24.57886 137.33725 35044 ft 503 kts 103°
2026-04-17 09:54 -24.59472 137.41150 35043 ft 503 kts 103°
2026-04-17 09:54 -24.61059 137.48602 35041 ft 503 kts 103°
2026-04-17 09:55 -24.62649 137.56090 35040 ft 502 kts 103°
2026-04-17 09:55 -24.64224 137.63527 35041 ft 503 kts 103°
2026-04-17 09:56 -24.65803 137.70987 35039 ft 503 kts 103°
2026-04-17 09:56 -24.67385 137.78467 35040 ft 503 kts 103°
2026-04-17 09:57 -24.68951 137.85913 35039 ft 503 kts 103°
2026-04-17 09:57 -24.70519 137.93401 35038 ft 504 kts 103°
2026-04-17 09:58 -24.72088 138.00899 35039 ft 503 kts 103°
2026-04-17 09:58 -24.73649 138.08383 35035 ft 504 kts 103°
2026-04-17 09:59 -24.75213 138.15889 35033 ft 504 kts 103°
2026-04-17 09:59 -24.76767 138.23375 35032 ft 503 kts 103°
2026-04-17 10:00 -24.78310 138.30832 35030 ft 503 kts 103°
2026-04-17 10:00 -24.79858 138.38336 35029 ft 503 kts 103°
2026-04-17 10:01 -24.81403 138.45845 35030 ft 504 kts 103°
2026-04-17 10:01 -24.82945 138.53348 35027 ft 504 kts 103°
2026-04-17 10:02 -24.84481 138.60858 35025 ft 504 kts 103°
2026-04-17 10:02 -24.86017 138.68368 35024 ft 505 kts 102°
2026-04-17 10:03 -24.87541 138.75848 35023 ft 504 kts 102°
2026-04-17 10:03 -24.89067 138.83379 35026 ft 505 kts 102°
2026-04-17 10:04 -24.90590 138.90894 35025 ft 504 kts 103°
2026-04-17 10:04 -24.92110 138.98407 35024 ft 505 kts 102°
2026-04-17 10:05 -24.93630 139.05949 35024 ft 505 kts 102°
2026-04-17 10:05 -24.95147 139.13510 35030 ft 505 kts 102°
2026-04-17 10:06 -24.96645 139.20993 35034 ft 505 kts 102°
2026-04-17 10:06 -24.98153 139.28534 35030 ft 505 kts 102°
2026-04-17 10:07 -24.99658 139.36090 35026 ft 505 kts 102°
2026-04-17 10:07 -25.01159 139.43640 35022 ft 505 kts 103°
2026-04-17 10:08 -25.02651 139.51176 35018 ft 506 kts 103°
2026-04-17 10:08 -25.04144 139.58723 35018 ft 506 kts 102°
2026-04-17 10:09 -25.05631 139.66269 35008 ft 506 kts 102°
2026-04-17 10:09 -25.07117 139.73836 35013 ft 506 kts 102°
2026-04-17 10:10 -25.08601 139.81406 35016 ft 506 kts 102°
2026-04-17 10:11 -25.10811 139.92737 35013 ft 505 kts 102°
2026-04-17 10:11 -25.12283 140.00297 35013 ft 506 kts 102°
2026-04-17 10:12 -25.13748 140.07849 35011 ft 505 kts 102°
2026-04-17 10:12 -25.15217 140.15442 35010 ft 505 kts 102°
2026-04-17 10:13 -25.16670 140.22975 35008 ft 506 kts 102°
2026-04-17 10:13 -25.18138 140.30606 35012 ft 507 kts 102°
2026-04-17 10:14 -25.19593 140.38196 35012 ft 507 kts 102°
2026-04-17 10:14 -25.21034 140.45743 35009 ft 507 kts 102°
2026-04-17 10:15 -25.22484 140.53345 35012 ft 507 kts 102°
2026-04-17 10:15 -25.23928 140.60947 35011 ft 507 kts 102°
2026-04-17 10:16 -25.25373 140.68559 35011 ft 507 kts 102°
2026-04-17 10:16 -25.26806 140.76152 35012 ft 507 kts 102°
2026-04-17 10:17 -25.28244 140.83786 35012 ft 507 kts 102°
2026-04-17 10:17 -25.29672 140.91383 35014 ft 508 kts 102°
2026-04-17 10:18 -25.31094 140.98982 35014 ft 507 kts 102°
2026-04-17 10:18 -25.32520 141.06625 35015 ft 508 kts 102°
2026-04-17 10:19 -25.33935 141.14230 35015 ft 507 kts 102°
2026-04-17 10:19 -25.35348 141.21838 35014 ft 508 kts 102°
2026-04-17 10:20 -25.36757 141.29442 35013 ft 508 kts 102°
2026-04-17 10:20 -25.38167 141.37082 35014 ft 508 kts 102°
2026-04-17 10:21 -25.39576 141.44746 35014 ft 508 kts 102°
2026-04-17 10:21 -25.40972 141.52362 35013 ft 509 kts 102°
2026-04-17 10:22 -25.42368 141.59996 35016 ft 510 kts 102°
2026-04-17 10:22 -25.43772 141.67697 35018 ft 510 kts 101°
2026-04-17 10:23 -25.45163 141.75365 35023 ft 510 kts 102°
2026-04-17 10:23 -25.46549 141.83026 35026 ft 509 kts 102°
2026-04-17 10:24 -25.47932 141.90685 35024 ft 510 kts 102°
2026-04-17 10:24 -25.49312 141.98354 35023 ft 510 kts 101°
2026-04-17 10:25 -25.50689 142.06026 35025 ft 510 kts 101°
2026-04-17 10:25 -25.52058 142.13696 35027 ft 510 kts 102°
2026-04-17 10:26 -25.53431 142.21393 35026 ft 510 kts 102°
2026-04-17 10:26 -25.54802 142.29103 35024 ft 511 kts 102°
2026-04-17 10:27 -25.56158 142.36771 35023 ft 511 kts 102°
2026-04-17 10:27 -25.57514 142.44446 35022 ft 511 kts 102°
2026-04-17 10:28 -25.58876 142.52173 35022 ft 511 kts 102°
2026-04-17 10:28 -25.60225 142.59872 35020 ft 511 kts 102°
2026-04-17 10:29 -25.61570 142.67558 35019 ft 511 kts 101°
2026-04-17 10:29 -25.62914 142.75284 35024 ft 511 kts 102°
2026-04-17 10:30 -25.64258 142.83015 35025 ft 511 kts 101°
2026-04-17 10:30 -25.65590 142.90703 35022 ft 511 kts 101°
2026-04-17 10:31 -25.66928 142.98450 35026 ft 512 kts 101°
2026-04-17 10:31 -25.68253 143.06158 35030 ft 512 kts 101°
2026-04-17 10:32 -25.69578 143.13886 35030 ft 512 kts 101°
2026-04-17 10:32 -25.70892 143.21584 35037 ft 512 kts 102°
2026-04-17 10:33 -25.72212 143.29314 35039 ft 512 kts 102°
2026-04-17 10:33 -25.73530 143.37088 35041 ft 512 kts 101°
2026-04-17 10:34 -25.74836 143.44820 35044 ft 512 kts 102°
2026-04-17 10:34 -25.76142 143.52560 35046 ft 512 kts 102°
2026-04-17 10:35 -25.77443 143.60294 35047 ft 512 kts 101°
2026-04-17 10:35 -25.78743 143.68042 35046 ft 512 kts 101°
2026-04-17 10:36 -25.80034 143.75783 35050 ft 512 kts 101°
2026-04-17 10:36 -25.81326 143.83550 35054 ft 513 kts 101°
2026-04-17 10:37 -25.82612 143.91307 35054 ft 513 kts 101°
2026-04-17 10:37 -25.83893 143.99080 35057 ft 513 kts 101°
2026-04-17 10:38 -25.85173 144.06854 35056 ft 513 kts 101°
2026-04-17 10:38 -25.86447 144.14604 35055 ft 513 kts 101°
2026-04-17 10:39 -25.87713 144.22368 35058 ft 513 kts 101°
2026-04-17 10:39 -25.88975 144.30119 35054 ft 513 kts 101°
2026-04-17 10:40 -25.89787 144.37972 35055 ft 514 kts 93°
2026-04-17 10:40 -25.90144 144.45908 35055 ft 514 kts 92°
2026-04-17 10:41 -25.90466 144.53763 35054 ft 513 kts 93°
2026-04-17 10:41 -25.90814 144.61710 35053 ft 514 kts 92°
2026-04-17 10:42 -25.91160 144.69565 35053 ft 513 kts 92°
2026-04-17 10:42 -25.91505 144.77486 35054 ft 513 kts 92°
2026-04-17 10:43 -25.91846 144.85324 35057 ft 513 kts 92°
2026-04-17 10:43 -25.92181 144.93216 35057 ft 513 kts 92°
2026-04-17 10:44 -25.92516 145.01140 35060 ft 513 kts 92°
2026-04-17 10:44 -25.92843 145.09009 35062 ft 514 kts 92°
2026-04-17 10:45 -25.93170 145.16936 35061 ft 514 kts 92°
2026-04-17 10:45 -25.93488 145.24831 35063 ft 514 kts 92°
2026-04-17 10:46 -25.93804 145.32762 35065 ft 514 kts 92°
2026-04-17 10:46 -25.94115 145.40630 35065 ft 514 kts 92°
2026-04-17 10:47 -25.94426 145.48587 35066 ft 514 kts 92°
2026-04-17 10:47 -25.94729 145.56445 35066 ft 514 kts 93°
2026-04-17 10:48 -25.95027 145.64360 35068 ft 514 kts 92°
2026-04-17 10:48 -25.95321 145.72286 35070 ft 514 kts 92°
2026-04-17 10:49 -25.95613 145.80206 35072 ft 514 kts 92°
2026-04-17 10:49 -25.95897 145.88097 35077 ft 513 kts 92°
2026-04-17 10:50 -25.96177 145.95985 35075 ft 514 kts 92°
2026-04-17 10:50 -25.96456 146.03915 35077 ft 514 kts 92°
2026-04-17 10:51 -25.96731 146.11798 35079 ft 513 kts 92°
2026-04-17 10:51 -25.96999 146.19720 35079 ft 514 kts 92°
2026-04-17 10:52 -25.97259 146.27615 35081 ft 514 kts 92°
2026-04-17 10:52 -25.97522 146.35535 35080 ft 514 kts 92°
2026-04-17 10:53 -25.97776 146.43425 35080 ft 514 kts 92°
2026-04-17 10:53 -25.98031 146.51353 35079 ft 514 kts 92°
2026-04-17 10:54 -25.98278 146.59247 35078 ft 514 kts 92°
2026-04-17 10:54 -25.98521 146.67163 35079 ft 515 kts 92°
2026-04-17 10:55 -25.98761 146.75119 35084 ft 515 kts 92°
2026-04-17 10:55 -25.98992 146.83031 35086 ft 515 kts 92°
2026-04-17 10:56 -25.99227 146.90951 35087 ft 515 kts 92°
2026-04-17 10:56 -25.99452 146.98866 35086 ft 514 kts 92°
2026-04-17 10:57 -25.99673 147.06808 35086 ft 514 kts 92°
2026-04-17 10:57 -25.99890 147.14712 35087 ft 515 kts 92°
2026-04-17 10:58 -26.00103 147.22659 35086 ft 515 kts 92°
2026-04-17 10:58 -26.00312 147.30571 35092 ft 514 kts 92°
2026-04-17 10:59 -26.00514 147.38460 35089 ft 514 kts 92°
2026-04-17 10:59 -26.00717 147.46379 35093 ft 514 kts 92°
2026-04-17 11:00 -26.00911 147.54303 35088 ft 514 kts 92°
2026-04-17 11:00 -26.01104 147.62209 35086 ft 514 kts 92°
2026-04-17 11:01 -26.01290 147.70125 35083 ft 514 kts 92°
2026-04-17 11:01 -26.01472 147.78044 35079 ft 514 kts 92°
2026-04-17 11:02 -26.01652 147.86006 35082 ft 514 kts 92°
2026-04-17 11:02 -26.01826 147.93880 35086 ft 514 kts 91°
2026-04-17 11:03 -26.01995 148.01842 35090 ft 514 kts 91°
2026-04-17 11:03 -26.02159 148.09711 35094 ft 514 kts 92°
2026-04-17 11:04 -26.02321 148.17676 35097 ft 514 kts 92°
2026-04-17 11:04 -26.02477 148.25589 35102 ft 514 kts 92°
2026-04-17 11:05 -26.02630 148.33484 35103 ft 514 kts 92°
2026-04-17 11:05 -26.02779 148.41417 35099 ft 514 kts 92°
2026-04-17 11:06 -26.03008 148.49286 35100 ft 513 kts 94°
2026-04-17 11:06 -26.03457 148.57217 35094 ft 514 kts 95°
2026-04-17 11:07 -26.03910 148.65068 35094 ft 512 kts 94°
2026-04-17 11:07 -26.04355 148.72974 35092 ft 513 kts 94°
2026-04-17 11:08 -26.04785 148.80844 35087 ft 512 kts 94°
2026-04-17 11:08 -26.05212 148.88762 35087 ft 513 kts 95°
2026-04-17 11:09 -26.05632 148.96617 35084 ft 513 kts 95°
2026-04-17 11:09 -26.06050 149.04535 35077 ft 512 kts 94°
2026-04-17 11:10 -26.06669 149.16354 35069 ft 513 kts 94°
2026-04-17 11:10 -26.07075 149.24243 35058 ft 513 kts 95°
2026-04-17 11:11 -26.07481 149.32149 35049 ft 513 kts 95°
2026-04-17 11:11 -26.07880 149.40053 35047 ft 513 kts 95°
2026-04-17 11:12 -26.08273 149.47946 35048 ft 513 kts 95°
2026-04-17 11:12 -26.08660 149.55795 35048 ft 512 kts 95°
2026-04-17 11:13 -26.09048 149.63724 35045 ft 513 kts 95°
2026-04-17 11:13 -26.09430 149.71634 35041 ft 513 kts 94°
2026-04-17 11:14 -26.09805 149.79526 35043 ft 513 kts 94°
2026-04-17 11:14 -26.10182 149.87421 35046 ft 513 kts 94°
2026-04-17 11:15 -26.10550 149.95331 35045 ft 513 kts 94°
2026-04-17 11:15 -26.10910 150.03198 35045 ft 513 kts 94°
2026-04-17 11:16 -26.11270 150.11101 35050 ft 513 kts 94°
2026-04-17 11:16 -26.11627 150.19046 35055 ft 513 kts 94°
2026-04-17 11:17 -26.11978 150.26907 35059 ft 513 kts 95°
2026-04-17 11:17 -26.12324 150.34817 35059 ft 512 kts 94°
2026-04-17 11:18 -26.12670 150.42740 35063 ft 512 kts 94°
2026-04-17 11:18 -26.13005 150.50591 34981 ft 510 kts 94°
2026-04-17 11:19 -26.13172 150.54509 34296 ft 514 kts 94°
2026-04-17 11:19 -26.13341 150.58507 33211 ft 523 kts 94°
2026-04-17 11:19 -26.13511 150.62556 32374 ft 528 kts 94°
2026-04-17 11:19 -26.13680 150.66647 31748 ft 527 kts 93°
2026-04-17 11:20 -26.13849 150.70711 31145 ft 526 kts 93°
2026-04-17 11:20 -26.14013 150.74738 30545 ft 525 kts 92°
2026-04-17 11:20 -26.14176 150.78763 29920 ft 524 kts 93°
2026-04-17 11:20 -26.14338 150.82808 29257 ft 523 kts 92°
2026-04-17 11:21 -26.14495 150.86847 28595 ft 522 kts 91°
2026-04-17 11:21 -26.14192 150.90804 27878 ft 519 kts 73°
2026-04-17 11:21 -26.12820 150.94417 27363 ft 502 kts 52°
2026-04-17 11:21 -26.10769 150.97482 26950 ft 489 kts 45°
2026-04-17 11:22 -26.08639 151.00413 26443 ft 484 kts 45°
2026-04-17 11:22 -26.06523 151.03322 25923 ft 480 kts 45°
2026-04-17 11:22 -26.04458 151.06197 25433 ft 476 kts 46°
2026-04-17 11:22 -26.02437 151.09041 24826 ft 475 kts 46°
2026-04-17 11:23 -26.00396 151.11934 24280 ft 471 kts 46°
2026-04-17 11:23 -25.98389 151.14798 23798 ft 466 kts 46°
2026-04-17 11:23 -25.96431 151.17596 23354 ft 461 kts 47°
2026-04-17 11:23 -25.94480 151.20387 22903 ft 456 kts 47°
2026-04-17 11:24 -25.92545 151.23157 22469 ft 450 kts 47°
2026-04-17 11:24 -25.90635 151.25888 22041 ft 445 kts 47°
2026-04-17 11:24 -25.88751 151.28577 21603 ft 441 kts 47°
2026-04-17 11:24 -25.86870 151.31258 21158 ft 438 kts 47°
2026-04-17 11:25 -25.85017 151.33899 20721 ft 434 kts 47°
2026-04-17 11:25 -25.83161 151.36543 20280 ft 431 kts 48°
2026-04-17 11:25 -25.81342 151.39137 19844 ft 428 kts 48°
2026-04-17 11:25 -25.79528 151.41724 19416 ft 425 kts 48°
2026-04-17 11:26 -25.77725 151.44293 19008 ft 421 kts 49°
2026-04-17 11:26 -25.75931 151.46843 18583 ft 418 kts 49°
2026-04-17 11:26 -25.74156 151.49367 18155 ft 415 kts 49°
2026-04-17 11:26 -25.72374 151.51901 17731 ft 412 kts 49°
2026-04-17 11:27 -25.70631 151.54376 17314 ft 409 kts 50°
2026-04-17 11:27 -25.68878 151.56873 16907 ft 406 kts 50°
2026-04-17 11:27 -25.67152 151.59325 16487 ft 403 kts 50°
2026-04-17 11:27 -25.65455 151.61736 16096 ft 399 kts 49°
2026-04-17 11:28 -25.63751 151.64154 15696 ft 396 kts 49°
2026-04-17 11:28 -25.62051 151.66565 15293 ft 392 kts 49°
2026-04-17 11:28 -25.60372 151.68942 14894 ft 389 kts 49°
2026-04-17 11:28 -25.58730 151.71268 14494 ft 386 kts 49°
2026-04-17 11:29 -25.57073 151.73610 14097 ft 382 kts 49°
2026-04-17 11:29 -25.55478 151.75871 13703 ft 364 kts 49°
2026-04-17 11:29 -25.53977 151.78003 13329 ft 344 kts 48°
2026-04-17 11:29 -25.52539 151.80039 12959 ft 327 kts 48°
2026-04-17 11:30 -25.51152 151.81996 12610 ft 319 kts 48°
2026-04-17 11:30 -25.49811 151.83884 12378 ft 314 kts 49°
2026-04-17 11:30 -25.48469 151.85774 12099 ft 312 kts 49°
2026-04-17 11:30 -25.47138 151.87646 11779 ft 309 kts 49°
2026-04-17 11:31 -25.45806 151.89522 11303 ft 307 kts 49°
2026-04-17 11:31 -25.44509 151.91348 10845 ft 304 kts 49°
2026-04-17 11:31 -25.43204 151.93185 10457 ft 303 kts 50°
2026-04-17 11:31 -25.41898 151.95024 10299 ft 304 kts 50°
2026-04-17 11:32 -25.40585 151.96874 10174 ft 304 kts 50°
2026-04-17 11:32 -25.39293 151.98695 10056 ft 303 kts 50°
2026-04-17 11:32 -25.37986 152.00534 9797 ft 304 kts 50°
2026-04-17 11:32 -25.36668 152.02387 9458 ft 306 kts 50°
2026-04-17 11:33 -25.35366 152.04216 9121 ft 307 kts 51°
2026-04-17 11:33 -25.34045 152.06071 8783 ft 307 kts 51°
2026-04-17 11:33 -25.32725 152.07925 8455 ft 306 kts 51°
2026-04-17 11:33 -25.31414 152.09764 8133 ft 305 kts 51°
2026-04-17 11:34 -25.30102 152.11606 7809 ft 304 kts 52°
2026-04-17 11:34 -25.28794 152.13440 7489 ft 303 kts 52°
2026-04-17 11:34 -25.27482 152.15279 7163 ft 303 kts 52°
2026-04-17 11:34 -25.26190 152.17091 6845 ft 302 kts 53°
2026-04-17 11:35 -25.24895 152.18907 6518 ft 301 kts 53°
2026-04-17 11:35 -25.23597 152.20725 6198 ft 300 kts 53°
2026-04-17 11:35 -25.22329 152.22502 5875 ft 293 kts 53°
2026-04-17 11:35 -25.21082 152.24254 5561 ft 291 kts 53°
2026-04-17 11:36 -25.19833 152.26006 5251 ft 290 kts 53°
2026-04-17 11:36 -25.18587 152.27750 4944 ft 288 kts 53°
2026-04-17 11:36 -25.17337 152.29500 4635 ft 287 kts 53°
2026-04-17 11:36 -25.16105 152.31223 4413 ft 283 kts 52°
2026-04-17 11:37 -25.14917 152.32883 4295 ft 274 kts 52°
2026-04-17 11:37 -25.13751 152.34509 4220 ft 263 kts 52°
2026-04-17 11:37 -25.12639 152.36060 4159 ft 253 kts 51°
2026-04-17 11:37 -25.11447 152.37425 4035 ft 245 kts 41°
2026-04-17 11:38 -25.10120 152.38600 3835 ft 242 kts 38°
2026-04-17 11:38 -25.08785 152.39720 3603 ft 240 kts 37°
2026-04-17 11:38 -25.07461 152.40825 3432 ft 237 kts 37°
2026-04-17 11:38 -25.06170 152.41899 3292 ft 232 kts 33°
2026-04-17 11:39 -25.04676 152.42484 3059 ft 228 kts 356°
2026-04-17 11:39 -25.03234 152.41890 2928 ft 219 kts 321°
2026-04-17 11:39 -25.02118 152.40819 2741 ft 208 kts 319°
2026-04-17 11:39 -25.01015 152.39804 2409 ft 204 kts 323°
2026-04-17 11:40 -24.99895 152.38888 2127 ft 199 kts 326°
2026-04-17 11:40 -24.98775 152.38043 1860 ft 194 kts 328°
2026-04-17 11:40 -24.97673 152.37247 1707 ft 180 kts 329°
2026-04-17 11:40 -24.96652 152.36511 1503 ft 169 kts 329°
2026-04-17 11:41 -24.95682 152.35837 1180 ft 162 kts 332°
2026-04-17 11:41 -24.94742 152.35225 952 ft 149 kts 330°
2026-04-17 11:41 -24.93916 152.34621 733 ft 138 kts 330°
2026-04-17 11:41 -24.93114 152.34071 460 ft 131 kts 329°
2026-04-17 11:42 -24.92356 152.33539 314 ft 128 kts 330°
2026-04-17 11:42 -24.91603 152.33028 215 ft 127 kts 330°
2026-04-17 11:42 -24.90863 152.32515 109 ft 117 kts 328°
2026-04-17 11:42 -24.90376 152.32179 109 ft 67 kts 327°
2026-04-17 11:43 -24.90097 152.31979 109 ft 23 kts 330°
2026-04-17 11:43 -24.90033 152.32010 108 ft 9 kts 56°
2026-04-17 11:43 -24.89992 152.32077 108 ft 9 kts 47°
2026-04-17 11:43 -24.89950 152.32072 108 ft 6 kts 326°
2026-04-17 11:44 -24.89906 152.32036 108 ft 8 kts 323°
2026-04-17 11:44 -24.89879 152.31999 108 ft 3 kts 303°
2026-04-17 11:44 -24.89858 152.31982 108 ft 0 kts
2026-04-17 11:44 -24.89852 152.31988 108 ft 2 kts 48°
2026-04-17 11:45 -24.89838 152.32011 108 ft 4 kts 68°
2026-04-17 11:45 -24.89836 152.32024 108 ft 0 kts 85°
2026-04-17 11:50 -24.89839 152.32025 108 ft 0 kts 85°
2026-04-17 11:51 -24.89838 152.32025 108 ft 0 kts 87°
2026-04-17 11:51 -24.89834 152.32025 108 ft 0 kts 87°